When you browse on this site, cookies collect data to enhance your experience and personalize the content and advertising you see.
Visit our Privacy Policy to learn more. By continuing to use the site, you agree to this use of cookies and data.
  • în România
  • Lista ţărilor
  • Pe 7 zile
  • Temperatura apei
  • Meteo pe hartă
  • Widget-uri
  • user-avatar
    Intrare

    Meteo pe oră la Gagra

    Astăzi, 15 Octombrie, Marţi

    Timp Temperatura Precipitaţii Vânt Presiune Umiditate
    00:00 +19°C° 0 mm 1 m/s 739 mmHg 42%
    01:00 +19°C° 0 mm 1 m/s 739 mmHg 39%
    02:00 +19°C° 0 mm 1 m/s 738 mmHg 36%
    03:00 +19°C° 0 mm 1 m/s 738 mmHg 33%
    04:00 +19°C° 0 mm 1 m/s 738 mmHg 32%
    05:00 +19°C° 0 mm 1 m/s 738 mmHg 31%
    06:00 +19°C° 0 mm 1 m/s 738 mmHg 30%
    07:00 +21°C° 0 mm 1 m/s 738 mmHg 32%
    08:00 +23°C° 0 mm 1 m/s 738 mmHg 34%
    09:00 +25°C° 0 mm 1 m/s 738 mmHg 36%
    10:00 +26°C° 0 mm 1 m/s 738 mmHg 35%
    11:00 +27°C° 0 mm 1 m/s 738 mmHg 34%
    12:00 +28°C° 0 mm 2 m/s 738 mmHg 33%
    13:00 +28°C° 0 mm 2 m/s 738 mmHg 37%
    14:00 +27°C° 0 mm 2 m/s 737 mmHg 41%
    15:00 +27°C° 0 mm 2 m/s 737 mmHg 44%
    16:00 +25°C° 0 mm 2 m/s 737 mmHg 50%
    17:00 +23°C° 0 mm 2 m/s 737 mmHg 56%
    18:00 +20°C° 0 mm 2 m/s 736 mmHg 62%
    19:00 +19°C° 0 mm 2 m/s 737 mmHg 57%
    20:00 +19°C° 0 mm 2 m/s 737 mmHg 53%
    21:00 +19°C° 0 mm 2 m/s 737 mmHg 49%
    22:00 +19°C° 0 mm 2 m/s 737 mmHg 46%
    23:00 +18°C° 0 mm 2 m/s 737 mmHg 42%

    Mâine, 16 Octombrie, Miercuri

    Timp Temperatura Precipitaţii Vânt Presiune Umiditate
    00:00 +18°C° 0 mm 2 m/s 736 mmHg 39%
    01:00 +18°C° 0 mm 2 m/s 736 mmHg 37%
    02:00 +18°C° 0 mm 2 m/s 736 mmHg 36%
    03:00 +18°C° 0 mm 2 m/s 736 mmHg 34%
    04:00 +18°C° 0 mm 2 m/s 736 mmHg 33%
    05:00 +18°C° 0 mm 2 m/s 736 mmHg 31%
    06:00 +18°C° 0 mm 2 m/s 736 mmHg 30%
    07:00 +21°C° 0 mm 1 m/s 736 mmHg 32%
    08:00 +23°C° 0 mm 1 m/s 736 mmHg 34%
    09:00 +25°C° 0 mm 1 m/s 737 mmHg 36%
    10:00 +26°C° 0 mm 1 m/s 736 mmHg 34%
    11:00 +27°C° 0 mm 1 m/s 736 mmHg 32%
    12:00 +28°C° 0 mm 1 m/s 736 mmHg 30%
    13:00 +28°C° 0 mm 1 m/s 736 mmHg 33%
    14:00 +27°C° 0 mm 1 m/s 736 mmHg 36%
    15:00 +27°C° 0 mm 1 m/s 735 mmHg 40%
    16:00 +25°C° 0 mm 2 m/s 735 mmHg 46%
    17:00 +23°C° 0 mm 2 m/s 735 mmHg 53%
    18:00 +20°C° 0 mm 2 m/s 735 mmHg 60%
    19:00 +19°C° 0 mm 2 m/s 735 mmHg 56%
    20:00 +19°C° 0 mm 2 m/s 735 mmHg 53%
    21:00 +19°C° 0 mm 2 m/s 735 mmHg 50%
    22:00 +19°C° 0 mm 2 m/s 735 mmHg 46%
    23:00 +19°C° 0 mm 2 m/s 735 mmHg 42%

    Poimâine, 17 Octombrie, Joi

    Timp Temperatura Precipitaţii Vânt Presiune Umiditate
    00:00 +18°C° 0 mm 2 m/s 735 mmHg 38%
    01:00 +18°C° 0 mm 2 m/s 735 mmHg 37%
    02:00 +18°C° 0 mm 2 m/s 735 mmHg 36%
    03:00 +18°C° 0 mm 2 m/s 735 mmHg 35%
    04:00 +18°C° 0 mm 2 m/s 735 mmHg 35%
    05:00 +18°C° 0 mm 2 m/s 735 mmHg 36%
    06:00 +18°C° 0 mm 2 m/s 735 mmHg 36%
    07:00 +20°C° 0 mm 2 m/s 735 mmHg 37%
    08:00 +23°C° 0 mm 1 m/s 735 mmHg 38%
    09:00 +25°C° 0 mm 1 m/s 735 mmHg 39%
    10:00 +26°C° 0 mm 1 m/s 735 mmHg 36%
    11:00 +27°C° 0 mm 1 m/s 735 mmHg 33%
    12:00 +29°C° 0 mm 1 m/s 735 mmHg 29%
    13:00 +28°C° 0 mm 1 m/s 735 mmHg 32%
    14:00 +28°C° 0 mm 1 m/s 735 mmHg 34%
    15:00 +28°C° 0 mm 2 m/s 735 mmHg 37%
    16:00 +25°C° 0 mm 2 m/s 735 mmHg 42%
    17:00 +23°C° 0 mm 2 m/s 735 mmHg 48%
    18:00 +20°C° 0 mm 3 m/s 734 mmHg 54%
    19:00 +20°C° 0 mm 3 m/s 735 mmHg 51%
    20:00 +20°C° 0 mm 2 m/s 735 mmHg 49%
    21:00 +19°C° 0 mm 2 m/s 735 mmHg 47%
    22:00 +19°C° 0 mm 2 m/s 735 mmHg 44%
    23:00 +19°C° 0 mm 2 m/s 735 mmHg 42%

    18 Octombrie, Vineri

    Timp Temperatura Precipitaţii Vânt Presiune Umiditate
    00:00 +19°C° 0 mm 2 m/s 735 mmHg 40%
    01:00 +19°C° 0 mm 2 m/s 735 mmHg 39%
    02:00 +19°C° 0 mm 2 m/s 735 mmHg 38%
    03:00 +19°C° 0 mm 3 m/s 735 mmHg 37%
    04:00 +19°C° 0 mm 3 m/s 735 mmHg 38%
    05:00 +19°C° 0 mm 3 m/s 735 mmHg 38%
    06:00 +19°C° 0 mm 3 m/s 735 mmHg 39%
    07:00 +20°C° 0 mm 3 m/s 735 mmHg 40%
    08:00 +22°C° 0 mm 3 m/s 735 mmHg 41%
    09:00 +25°C° 0 mm 2 m/s 735 mmHg 43%
    10:00 +26°C° 0 mm 2 m/s 735 mmHg 42%
    11:00 +26°C° 0 mm 2 m/s 735 mmHg 41%
    12:00 +27°C° 0 mm 3 m/s 735 mmHg 41%
    13:00 +27°C° 0 mm 2 m/s 735 mmHg 45%
    14:00 +26°C° 0 mm 2 m/s 735 mmHg 49%
    15:00 +26°C° 0 mm 2 m/s 735 mmHg 54%
    16:00 +24°C° 0 mm 1 m/s 735 mmHg 59%
    17:00 +23°C° 0 mm 1 m/s 735 mmHg 65%
    18:00 +21°C° 0 mm 1 m/s 735 mmHg 71%
    19:00 +20°C° 0 mm 1 m/s 735 mmHg 71%
    20:00 +19°C° 0 mm 2 m/s 735 mmHg 70%
    21:00 +18°C° 0 mm 2 m/s 736 mmHg 70%
    22:00 +18°C° 0 mm 2 m/s 736 mmHg 70%
    23:00 +18°C° 0 mm 3 m/s 736 mmHg 70%

    19 Octombrie, Sâmbătă

    Timp Temperatura Precipitaţii Vânt Presiune Umiditate
    00:00 +18°C° 0 mm 3 m/s 736 mmHg 70%
    01:00 +17°C° 0 mm 3 m/s 736 mmHg 69%
    02:00 +17°C° 0 mm 3 m/s 735 mmHg 68%
    03:00 +17°C° 0 mm 3 m/s 735 mmHg 67%
    04:00 +17°C° 0 mm 3 m/s 736 mmHg 66%
    05:00 +17°C° 0 mm 3 m/s 736 mmHg 65%
    06:00 +17°C° 0 mm 3 m/s 736 mmHg 64%
    07:00 +19°C° 0 mm 2 m/s 736 mmHg 61%
    08:00 +20°C° 0 mm 2 m/s 736 mmHg 59%
    09:00 +23°C° 0 mm 2 m/s 736 mmHg 56%
    10:00 +24°C° 0 mm 2 m/s 736 mmHg 56%
    11:00 +25°C° 0 mm 2 m/s 736 mmHg 56%
    12:00 +26°C° 0 mm 2 m/s 736 mmHg 57%
    13:00 +25°C° 0.1 mm 1 m/s 736 mmHg 61%
    14:00 +25°C° 0.1 mm 1 m/s 736 mmHg 65%
    15:00 +24°C° 0.1 mm 1 m/s 736 mmHg 69%
    16:00 +23°C° 0.1 mm 1 m/s 736 mmHg 75%
    17:00 +21°C° 0.1 mm 1 m/s 736 mmHg 81%
    18:00 +19°C° 0.1 mm 1 m/s 735 mmHg 86%
    19:00 +19°C° 0 mm 1 m/s 736 mmHg 85%
    20:00 +19°C° 0 mm 1 m/s 736 mmHg 83%
    21:00 +18°C° 0 mm 1 m/s 736 mmHg 82%
    22:00 +19°C° 0 mm 1 m/s 736 mmHg 81%
    23:00 +18°C° 0 mm 2 m/s 736 mmHg 80%

    20 Octombrie, Duminică

    Timp Temperatura Precipitaţii Vânt Presiune Umiditate
    00:00 +18°C° 0 mm 2 m/s 736 mmHg 79%
    01:00 +18°C° 0 mm 2 m/s 736 mmHg 79%
    02:00 +17°C° 0 mm 2 m/s 736 mmHg 79%
    03:00 +17°C° 0 mm 2 m/s 736 mmHg 79%
    04:00 +18°C° 0 mm 1 m/s 736 mmHg 78%
    05:00 +18°C° 0 mm 1 m/s 736 mmHg 78%
    06:00 +18°C° 0 mm 1 m/s 736 mmHg 78%
    07:00 +19°C° 0 mm 1 m/s 736 mmHg 74%
    08:00 +21°C° 0 mm 1 m/s 736 mmHg 71%
    09:00 +22°C° 0 mm 1 m/s 736 mmHg 67%
    10:00 +23°C° 0.1 mm 1 m/s 736 mmHg 66%
    11:00 +24°C° 0.1 mm 1 m/s 736 mmHg 65%
    12:00 +24°C° 0.1 mm 1 m/s 736 mmHg 64%
    13:00 +24°C° 0.3 mm 1 m/s 736 mmHg 68%
    14:00 +23°C° 0.3 mm 2 m/s 736 mmHg 72%
    15:00 +23°C° 0.3 mm 2 m/s 736 mmHg 75%
    16:00 +22°C° 0.2 mm 1 m/s 736 mmHg 80%
    17:00 +21°C° 0.2 mm 1 m/s 736 mmHg 84%
    18:00 +20°C° 0.2 mm 1 m/s 736 mmHg 89%
    19:00 +19°C° 0 mm 1 m/s 736 mmHg 89%
    20:00 +19°C° 0 mm 1 m/s 736 mmHg 89%
    21:00 +18°C° 0 mm 1 m/s 737 mmHg 89%
    22:00 +18°C° 0 mm 1 m/s 737 mmHg 89%
    23:00 +18°C° 0 mm 1 m/s 737 mmHg 90%
    Arată mai mult